Location: Gilevgi
(36.8751°N, 30.0581°E)
Time: 08:16:00
(UTC+00:00)

Okean 1-7 Rocket - Pass Details

Date: 17 March 2026
Orbit: 609 x 643 km, 82.5° (Epoch: 18 April)

Event Time Altitude Azimuth Distance (km) Brightness Sun altitude
Rises 02:37:10 0° 7° (N) 2,918 7.3 -18.9°
Reaches altitude 10° 02:39:46 10° 20° (NNE) 2,000 6.6 -18.4°
Maximum altitude 02:43:25 25° 76° (ENE) 1,269 6.0 -17.7°
Drops below altitude 10° 02:47:00 10° 131° (SE) 1,972 6.6 -17.0°
Sets 02:49:32 0° 145° (SE) 2,867 7.3 -16.5°
